Weather History for KDIJ - March, 2013

Change the Weather History Date:

Tuesday, March 12, 2013

  Actual Average (KRXE) Record (KRXE)
Temperature  
Mean Temperature 24 °F 33 °F  
Max Temperature 41 °F 43 °F 62 °F (2007)
Min Temperature 10 °F 22 °F 6 °F (2009)
Degree Days  
Heating Degree Days 41 32  
Month to date heating degree days 420  
Since 1 July heating degree days 6393  
Cooling Degree Days 0 0  
Month to date cooling degree days 0  
Year to date cooling degree days 0  
Moisture  
Dew Point 17 °F    
Average Humidity 66    
Maximum Humidity 76    
Minimum Humidity 49    
Precipitation  
Precipitation 0.00 in 0.03 in - ()
Month to date precipitation 0.33  
Year to date precipitation 1.90  
Sea Level Pressure  
Sea Level Pressure 30.28 in    
Wind  
Wind Speed 5 mph (SE)    
Max Wind Speed 10 mph    
Max Gust Speed -    
Visibility 10 miles    
Events      
T = Trace of Precipitation, MM = Missing Value Source: NWS Daily Summary

Daily Weather History Graph

Daily Weather History Graph

Search for Another Location

Airport or City:

Trip Planner

Search our weather history database for the weather conditions in past years. The results will help you decide how hot, cold, wet, or windy it might be!

Date:

Astronomy

Mar. 12, 2013 Rise Set
Actual Time 7:41 AM MDT 7:27 PM MDT
Civil Twilight 7:12 AM MDT 7:55 PM MDT
Nautical Twilight 6:39 AM MDT 8:29 PM MDT
Astronomical Twilight 6:05 AM MDT 9:03 PM MDT
Moon 7:46 AM MDT (3/12) 8:50 PM MDT (3/12)
Length of Visible Light 12h 43m
Length of Day
11h 45m
New Moon, 1% of the Moon is Illuminated
Mar 12
New Moon
Mar 19
First Quarter
Mar 27
Full
Apr 2
Last Quarter
Apr 10
New

Hourly Weather History & Observations

Time (MDT) Temp. Windchill Dew Point Humidity Pressure Visibility Wind Dir Wind Speed Gust Speed Precip Events Conditions
12:56 AM 19.0 °F 12.3 °F 11.1 °F 71% 30.22 in 10.0 mi East 4.6 mph - N/A   Clear
1:56 AM 20.1 °F 13.6 °F 10.0 °F 65% 30.20 in 10.0 mi ESE 4.6 mph - N/A   Clear
2:56 AM 17.1 °F 8.7 °F 8.1 °F 68% 30.22 in 10.0 mi ENE 5.8 mph - N/A   Clear
3:56 AM 19.0 °F - 9.1 °F 65% 30.22 in 10.0 mi Calm Calm - N/A   Clear
4:56 AM 16.2 °F 9.0 °F 7.2 °F 68% 30.25 in 10.0 mi ESE 4.6 mph - N/A   Clear
5:56 AM 11.1 °F 1.7 °F 2.1 °F 67% 30.29 in 10.0 mi East 5.8 mph - N/A   Clear
6:56 AM 12.0 °F 5.9 °F 3.0 °F 67% 30.30 in 10.0 mi East 3.5 mph - N/A   Clear
7:56 AM 10.0 °F 1.8 °F 1.0 °F 67% 30.35 in 10.0 mi East 4.6 mph - N/A   Partly Cloudy
8:56 AM 17.1 °F 10.0 °F 6.1 °F 62% 30.34 in 10.0 mi SE 4.6 mph - N/A   Partly Cloudy
9:56 AM 24.1 °F 18.2 °F 11.1 °F 58% 30.34 in 10.0 mi SE 4.6 mph - N/A   Mostly Cloudy
10:56 AM 30.0 °F 22.4 °F 13.1 °F 49% 30.29 in 10.0 mi SSE 8.1 mph - N/A   Scattered Clouds
11:56 AM 34.0 °F 26.0 °F 18.1 °F 52% 30.32 in 10.0 mi South 10.4 mph - N/A   Mostly Cloudy
12:56 PM 30.0 °F 26.5 °F 19.0 °F 64% 30.32 in 10.0 mi NNW 3.5 mph - N/A   Scattered Clouds
1:56 PM 34.9 °F 32.0 °F 23.0 °F 62% 30.28 in 10.0 mi South 3.5 mph - N/A   Partly Cloudy
2:56 PM 34.9 °F 29.0 °F 23.0 °F 62% 30.30 in 10.0 mi NNW 6.9 mph - N/A   Scattered Clouds
3:56 PM 38.8 °F 34.6 °F 23.0 °F 53% 30.25 in 10.0 mi North 5.8 mph - N/A   Mostly Cloudy
4:56 PM 34.9 °F 30.8 °F 26.1 °F 70% 30.30 in 10.0 mi WNW 4.6 mph - N/A   Overcast
5:56 PM 36.9 °F 30.7 °F 27.1 °F 68% 30.30 in 10.0 mi South 8.1 mph - N/A   Overcast
6:56 PM 36.9 °F 31.4 °F 28.0 °F 70% 30.30 in 10.0 mi SSE 6.9 mph - N/A   Overcast
7:56 PM 36.9 °F 29.6 °F 29.1 °F 74% 30.30 in 10.0 mi SSE 10.4 mph - N/A   Mostly Cloudy
8:56 PM 37.9 °F 32.7 °F 29.1 °F 71% 30.29 in 10.0 mi SE 6.9 mph - N/A   Mostly Cloudy
9:56 PM 36.9 °F 30.7 °F 30.0 °F 76% 30.26 in 10.0 mi SSE 8.1 mph - N/A   Mostly Cloudy
10:56 PM 37.9 °F 31.5 °F 30.0 °F 73% 30.25 in 10.0 mi SSE 9.2 mph - N/A   Mostly Cloudy
11:56 PM 37.9 °F 32.1 °F 30.0 °F 73% 30.23 in 10.0 mi SSE 8.1 mph - N/A   Overcast